TimeMDT,TemperatureF,Dew PointF,Humidity,Sea Level PressureIn,VisibilityMPH,Wind Direction,Wind SpeedMPH,Gust SpeedMPH,PrecipitationIn,Events,Conditions,WindDirDegrees,DateUTC
12:15 AM,46.4,32.0,57,29.88,10.0,WNW,8.1,-,N/A,,Clear,300,2013-09-24 06:15:00
12:35 AM,46.4,30.2,53,29.88,10.0,WNW,10.4,-,N/A,,Clear,290,2013-09-24 06:35:00
12:55 AM,46.4,30.2,53,29.89,10.0,WNW,9.2,-,N/A,,Clear,290,2013-09-24 06:55:00
1:15 AM,46.4,30.2,53,29.89,10.0,WNW,4.6,-,N/A,,Clear,290,2013-09-24 07:15:00
1:35 AM,44.6,30.2,57,29.90,10.0,Calm,Calm,-,N/A,,Clear,0,2013-09-24 07:35:00
1:55 AM,44.6,30.2,57,29.90,10.0,Calm,Calm,-,N/A,,Clear,0,2013-09-24 07:55:00
2:15 AM,44.6,30.2,57,29.91,10.0,WNW,4.6,-,N/A,,Clear,300,2013-09-24 08:15:00
2:35 AM,44.6,30.2,57,29.91,10.0,Calm,Calm,-,N/A,,Clear,0,2013-09-24 08:35:00
2:55 AM,44.6,30.2,57,29.91,10.0,WNW,3.5,-,N/A,,Clear,300,2013-09-24 08:55:00
3:15 AM,42.8,30.2,61,29.92,10.0,SSW,3.5,-,N/A,,Clear,200,2013-09-24 09:15:00
3:35 AM,44.6,30.2,57,29.92,10.0,Calm,Calm,-,N/A,,Clear,0,2013-09-24 09:35:00
3:55 AM,42.8,33.8,70,29.93,10.0,SSW,5.8,-,N/A,,Scattered Clouds,200,2013-09-24 09:55:00
4:15 AM,41.0,30.2,65,29.93,10.0,SW,3.5,-,N/A,,Scattered Clouds,230,2013-09-24 10:15:00
4:35 AM,39.2,32.0,75,29.94,10.0,WSW,6.9,-,N/A,,Mostly Cloudy,240,2013-09-24 10:35:00
5:55 AM,39.2,30.2,70,29.94,10.0,Calm,Calm,-,N/A,,Partly Cloudy,0,2013-09-24 11:55:00
6:15 AM,39.2,30.2,70,29.94,10.0,South,4.6,-,N/A,,Clear,180,2013-09-24 12:15:00
6:35 AM,37.4,28.4,70,29.95,10.0,Calm,Calm,-,N/A,,Clear,0,2013-09-24 12:35:00
6:55 AM,39.2,33.8,81,29.94,10.0,Calm,Calm,-,N/A,,Clear,0,2013-09-24 12:55:00
7:15 AM,39.2,32.0,75,29.95,10.0,Calm,Calm,-,N/A,,Clear,0,2013-09-24 13:15:00
7:35 AM,39.2,33.8,81,29.95,10.0,Calm,Calm,-,N/A,,Clear,0,2013-09-24 13:35:00
7:55 AM,44.6,35.6,71,29.95,10.0,SSW,4.6,-,N/A,,Clear,200,2013-09-24 13:55:00
8:15 AM,46.4,35.6,66,29.95,10.0,South,4.6,-,N/A,,Clear,190,2013-09-24 14:15:00
8:35 AM,50.0,35.6,58,29.95,10.0,South,4.6,-,N/A,,Clear,170,2013-09-24 14:35:00
8:55 AM,51.8,35.6,54,29.96,10.0,SSE,6.9,-,N/A,,Clear,160,2013-09-24 14:55:00
9:35 AM,53.6,37.4,54,29.96,10.0,SSE,8.1,-,N/A,,Clear,160,2013-09-24 15:35:00
9:55 AM,55.4,37.4,51,29.96,10.0,South,9.2,-,N/A,,Clear,170,2013-09-24 15:55:00
10:15 AM,57.2,37.4,48,29.95,10.0,South,5.8,-,N/A,,Clear,180,2013-09-24 16:15:00
10:35 AM,60.8,37.4,42,29.95,10.0,South,8.1,-,N/A,,Clear,170,2013-09-24 16:35:00
10:55 AM,62.6,37.4,39,29.94,10.0,South,6.9,-,N/A,,Clear,180,2013-09-24 16:55:00
11:15 AM,64.4,37.4,37,29.94,10.0,SE,6.9,-,N/A,,Clear,130,2013-09-24 17:15:00
11:35 AM,66.2,37.4,35,29.93,10.0,South,8.1,-,N/A,,Clear,180,2013-09-24 17:35:00
11:55 AM,66.2,37.4,35,29.92,10.0,SE,8.1,-,N/A,,Clear,140,2013-09-24 17:55:00
12:15 PM,68.0,35.6,30,29.91,10.0,SSE,11.5,-,N/A,,Clear,150,2013-09-24 18:15:00
12:35 PM,69.8,33.8,27,29.90,10.0,SSE,4.6,-,N/A,,Clear,150,2013-09-24 18:35:00
1:15 PM,69.8,33.8,27,29.88,10.0,SSE,8.1,-,N/A,,Clear,150,2013-09-24 19:15:00
1:35 PM,71.6,35.6,27,29.87,10.0,South,10.4,-,N/A,,Clear,190,2013-09-24 19:35:00
1:55 PM,71.6,33.8,25,29.86,10.0,South,6.9,-,N/A,,Clear,190,2013-09-24 19:55:00
2:15 PM,73.4,33.8,23,29.85,10.0,South,8.1,-,N/A,,Clear,190,2013-09-24 20:15:00
2:35 PM,73.4,33.8,23,29.84,10.0,South,10.4,20.7,N/A,,Clear,170,2013-09-24 20:35:00
2:55 PM,73.4,33.8,23,29.83,10.0,SE,9.2,-,N/A,,Clear,140,2013-09-24 20:55:00
3:15 PM,73.4,35.6,25,29.82,10.0,SSE,6.9,-,N/A,,Clear,160,2013-09-24 21:15:00
3:55 PM,73.4,35.6,25,29.80,10.0,SSE,8.1,-,N/A,,Clear,160,2013-09-24 21:55:00
4:15 PM,73.4,35.6,25,29.79,10.0,South,6.9,-,N/A,,Clear,170,2013-09-24 22:15:00
4:55 PM,73.4,35.6,25,29.78,10.0,SSE,5.8,-,N/A,,Clear,150,2013-09-24 22:55:00
5:15 PM,73.4,35.6,25,29.76,10.0,SE,5.8,-,N/A,,Clear,130,2013-09-24 23:15:00
5:35 PM,73.4,35.6,25,29.76,10.0,ESE,5.8,-,N/A,,Clear,110,2013-09-24 23:35:00
5:55 PM,71.6,39.2,31,29.74,10.0,East,6.9,-,N/A,,Clear,80,2013-09-24 23:55:00
6:15 PM,69.8,39.2,33,29.74,10.0,East,6.9,-,N/A,,Clear,90,2013-09-25 00:15:00
6:35 PM,69.8,37.4,31,29.74,10.0,East,8.1,-,N/A,,Clear,100,2013-09-25 00:35:00
6:55 PM,68.0,37.4,33,29.73,10.0,East,8.1,-,N/A,,Partly Cloudy,100,2013-09-25 00:55:00
7:15 PM,64.4,37.4,37,29.72,10.0,East,6.9,-,N/A,,Partly Cloudy,80,2013-09-25 01:15:00
7:35 PM,64.4,37.4,37,29.72,10.0,ENE,8.1,-,N/A,,Clear,70,2013-09-25 01:35:00
7:55 PM,66.2,37.4,35,29.71,10.0,East,8.1,-,N/A,,Clear,80,2013-09-25 01:55:00
8:15 PM,64.4,39.2,40,29.71,10.0,ENE,6.9,-,N/A,,Partly Cloudy,70,2013-09-25 02:15:00
8:55 PM,64.4,39.2,40,29.68,10.0,East,10.4,-,N/A,,Scattered Clouds,80,2013-09-25 02:55:00
9:15 PM,64.4,39.2,40,29.68,10.0,East,5.8,-,N/A,,Clear,80,2013-09-25 03:15:00
9:35 PM,64.4,39.2,40,29.67,10.0,East,6.9,-,N/A,,Scattered Clouds,100,2013-09-25 03:35:00
9:55 PM,64.4,41.0,42,29.67,10.0,ESE,10.4,-,N/A,,Partly Cloudy,110,2013-09-25 03:55:00
10:15 PM,66.2,41.0,40,29.66,10.0,ESE,13.8,18.4,N/A,,Clear,120,2013-09-25 04:15:00
10:35 PM,66.2,41.0,40,29.64,10.0,ESE,12.7,-,N/A,,Clear,120,2013-09-25 04:35:00
10:55 PM,66.2,41.0,40,29.64,10.0,SE,12.7,-,N/A,,Scattered Clouds,130,2013-09-25 04:55:00
11:15 PM,66.2,42.8,43,29.61,10.0,ESE,13.8,-,N/A,,Mostly Cloudy,120,2013-09-25 05:15:00
11:35 PM,66.2,41.0,40,29.60,10.0,East,12.7,19.6,N/A,,Mostly Cloudy,100,2013-09-25 05:35:00